STARLINK-1572, 46060

Orbit data source: Space-Track

STARLINK-1572, 46060 is a payload satellite owned by SpaceX/Seattle (US) in LEO that was launched on Fri, 07 Aug 2020 UTC via an FALCON 9 launch vehicle from the Air Force Eastern Test Range (AFETR). Payload-class satellites include a variety of spacecraft equipped with specific instruments for various scientific and technological missions. These include communications satellites like Starlink; space stations such as the ISS; scientific satellites like the Hubble; Earth observation satellites from companies like Planet Labs, Umbra, and HawkEye 360; GPS; miniature CubeSats for education and research; and military/defense satellites.

Loading next visibility...
Identifier
46060, 2020-055AK
Orbit
LEO
Country
Flag of USUS
Related business
Manufacturer
SpaceX/Seattle
Mission
Operational Commercial Communications
Bus & Motor
STARLINK, Unknown motor
Mass
260 kg wet, ~248 kg dry
Launch date (UTC)
2020-08-07 (6 years ago)
Launch vehicle
FALCON 9
Launch site
Air Force Eastern Test Range (AFETR)
Object type
Payload
Rocket body
Debris
Shape & HBR
Box + 1 Pan, 10.1 m
Radar Cross Section
13.562 m², Large (>1 m²)

Expand to show TLE details & history
Last TLE update: 12 hours ago

TLE from 12 hours ago
0 STARLINK-1572
1 46060U 20055AK  26196.15839892 -.00000055  00000-0  10261-4 0  9992
2 46060  53.1594 242.0355 0001096  77.5110 282.6013 15.30191581328552
Epoch: 2026-07-15T03:48Z
TLE epoch observation values (Epoch: 2026-07-15T03:48:05.666Z)
Latitude
-0.00006°
Longitude
-108.00637°
Altitude
475.976 km
Speed
7.629 km/s
True Right ascension
16h 08m 08s
True Declination
0° 00' 00"
Sunlit
Object was in full shadow at epoch
Visualization orbit readout
Latitude
Unknown
Longitude
Unknown
Altitude
Unknown
Speed
Unknown
Apparent Right ascension
Unknown
Apparent Declination
Unknown
Sunlit
N/A
Visualization observer readout
Local Sidereal Time
04:36:20
Azimuth
Unknown
Elevation
Unknown
Doppler factor
Unknown
Orbital elements
Apogee altitude
476.248 km
Perigee altitude
474.746 km
Semi-major axis
6,853.634 km
Eccentricity
0.00011
Inclination
53.1594°
RAAN
242.0355°
Arg. of periapsis
77.511°
True anomaly
282.58904°
Mean anomaly
282.6013°
Eccentric anomaly
282.59517°
Mean motion
3.82527 °/min
Orbital period
94.11 mins
BSTAR
0.000010261
Loading maneuver chart data...
Computing Atmospheric mass density...
Loading historical data...
Loading historical data...
Loading historical data...
Loading historical data...
Loading historical data...
Loading historical data...
Loading historical data...

Documentation

Showing up to 5 results
|